Location: Napier
(39.4830°S, 176.9170°E)
Time: 06:16:38
(UTC+12:00)

Daily predictions for brighter satellites

Satellite Brightness Start Highest point End
(mag) Time Altitude Azimuth Time Altitude Azimuth Time Altitude Azimuth
SMAP 3.6 17:58:19 10° SSE 18:02:43 38° E 18:07:03 10° NNE
CZ-4B DEB 4.3 17:58:18 10° SSE 18:03:56 86° ENE 18:09:27 10° NNW
COSMO-SKYMED 1 4.4 18:00:10 10° NNW 18:04:15 38° W 18:08:24 10° SSW
BREEZE-M R/B 4.5 18:00:02 10° NNW 18:04:25 24° NE 18:07:12 10° E
MOS 1-B 4.4 17:59:33 10° SSE 18:05:27 85° ENE 18:11:17 10° NNW
Atlas Centaur 2 4.0 18:05:19 10° NW 18:07:22 13° NNW 18:09:17 10° N
Okean O Rocket 1.7 18:05:20 10° SSE 18:09:40 54° E 18:13:56 10° N
Cosmos 2082 Rocket 2.9 18:04:21 10° SSW 18:10:03 61° WNW 18:15:41 10° N
CZ-4B R/B 3.2 18:06:31 10° SSE 18:11:56 60° ENE 18:17:11 10° N
Cosmos 1452 Rocket 3.8 18:09:30 10° N 18:14:35 49° ENE 18:19:42 10° SSE
CENTAUR R/B 3.4 18:10:04 10° SW 18:15:20 44° WNW 18:20:13 10° N
Helios 1A Rocket 4.4 18:13:05 10° SE 18:15:52 17° E 18:18:38 10° NE
Cosmos 1862 4.0 18:14:42 10° SSE 18:18:26 34° ESE 18:22:08 10° NE
MOS 1 Rocket 3.7 18:14:16 10° NE 18:18:35 38° ESE 18:22:46 10° S
PAYLOAD B 4.5 18:16:38 10° SSE 18:22:20 79° WSW 18:27:56 10° NNW
Cosmos 1633 3.5 18:21:20 10° SSW 18:24:54 52° W 18:28:25 10° N
Nadezhda 3 Rocket 4.4 18:21:37 10° NNE 18:27:17 39° E 18:33:03 10° SSE
GPS 2-04 Rocket1 4.1 18:25:17 10° NW 18:28:32 25° NNE 18:31:00 14° ENE
Envisat 3.0 18:24:48 10° SSE 18:29:59 87° ENE 18:35:07 10° NNW
CORIOLIS 4.2 18:24:52 10° SSE 18:30:15 58° E 18:35:36 10° N
Cosmos 1441 Rocket 3.3 18:26:41 10° S 18:30:38 54° ESE 18:34:31 10° NNE
BREEZE-M DEB (TANK) 3.6 18:32:19 10° W 18:34:19 27° NW 18:37:31 10° NNE
AQUARIUS 4.1 18:31:57 10° SSE 18:36:31 78° E 18:41:03 10° N
Lacrosse 5 rocket 3.7 18:35:28 10° SW 18:37:12 13° SSW 18:38:56 10° S
BREEZE M DEB (TANK) 2.7 18:35:51 10° SW 18:37:14 22° S 18:38:00 18° SE
Cosmos 676 Rocket 4.2 18:33:26 10° SSW 18:38:44 79° WNW 18:44:01 10° NNE
Cosmos 1656 Rocket 4.4 18:34:15 10° NNE 18:39:10 31° ENE 18:43:36 12° SE
Cosmos 1821 Rocket 4.3 18:34:03 10° S 18:39:54 43° ESE 18:45:40 10° NNE
Cosmos 1606 3.6 18:38:12 10° NNE 18:41:25 26° E 18:43:19 18° SE
Cosmos 332 Rocket 4.0 18:36:30 10° NNW 18:41:26 75° WSW 18:46:25 10° SSE
Lacrosse 4 Rocket 2.4 18:39:36 10° S 18:43:36 30° SE 18:45:24 22° E
Cosmos 1151 Rocket 4.1 18:42:24 10° NE 18:45:56 24° E 18:46:29 23° ESE
Cosmos 2366 rocket 4.4 18:39:48 10° SSW 18:46:13 69° W 18:52:28 10° N
CZ-2C R/B 2.9 18:42:13 10° NE 18:47:30 50° ESE 18:52:56 10° S
Sich 1 3.3 18:43:55 10° S 18:48:12 47° E 18:52:28 10° NNE
Aureole 1 Rocket 4.0 18:48:25 10° SSW 18:52:00 46° WNW 18:56:31 10° N
Iridium 2 4.4 18:50:05 10° NNE 18:53:28 32° E 18:53:33 32° E
Milstar 3 Cent rocket 3.7 18:50:04 10° WNW 18:55:18 26° N 18:58:40 13° NE
Cosmos 2369 Rocket 2.2 18:51:50 10° NNW 18:57:34 87° ENE 19:03:23 10° SSE
IRS-1C Rocket 4.1 18:54:51 10° SSE 19:00:09 59° ENE 19:05:22 10° N
Cosmos 1943 Rocket 2.8 18:58:51 10° NW 19:04:15 55° WSW 19:09:43 10° SSE
CZ-4 R/B 3.5 19:07:54 13° NNE 19:07:54 13° NNE 19:08:21 10° NNE
Cosmos 2239 Rocket 4.5 18:59:19 10° S 19:05:33 59° E 19:11:38 10° NNE
Cosmos 1110 Rocket 3.9 19:04:54 10° N 19:10:04 63° ENE 19:14:23 15° SSE
FengYun 1-2 T 4.2 19:06:07 10° SSE 19:11:48 89° WSW 19:17:22 10° NNW
SL-27 R/B 3.1 19:10:39 10° S 19:13:19 41° SSE 19:13:19 41° SSE
Cosmos 1741 Rocket 3.9 19:09:07 10° SSW 19:14:26 79° ESE 19:19:40 10° NNE
Cosmos 2263 4.1 19:09:18 10° NNW 19:15:01 86° ENE 19:20:39 10° SSE
CZ-4 R/B 4.3 19:18:42 30° SSE 19:20:43 70° ENE 19:24:53 10° N
Cosmos 1666 Rocket 3.4 19:22:42 10° S 19:27:10 85° E 19:30:12 20° N
CZ-4C R/B 3.2 19:18:59 10° NW 19:27:14 68° SW 19:33:45 13° SSE
IRIDIUM 106 4.2 19:22:10 10° S 19:27:27 67° E 19:32:40 10° N
H-2A R/B 4.0 19:25:02 10° WNW 19:30:50 59° NNE 19:41:40 30° ENE
DELTA 2 R/B (1) 3.5 19:25:56 10° W 19:31:33 88° S 19:32:42 58° E
ATLAS 3B R/B 4.0 19:28:43 10° SW 19:35:18 41° WNW 19:41:37 10° N
Cosmos 1939 Rocket 3.0 19:35:32 43° S 19:36:41 68° WSW 19:40:34 10° NNW
Okean-O 2.6 19:39:16 42° S 19:40:46 81° WSW 19:45:12 10° NNW
Cosmos 1933 4.3 19:44:32 10° NNW 19:47:31 44° NW 19:47:31 44° NW
Helios 1A Rocket 4.5 19:47:19 10° S 19:51:08 35° WSW 19:54:52 10° NW
CZ-2C R/B 4.0 19:53:39 61° WNW 19:53:52 61° WNW 19:58:22 10° SSW
Cosmos 1633 Rocket 3.6 19:49:55 10° SSW 19:54:20 58° W 19:54:33 57° WNW
Cosmos 1833 4.1 19:52:36 10° SSW 19:58:09 84° SSW 19:58:09 84° SSW
Cosmos 1934 Rocket 4.1 19:53:23 10° S 19:59:40 76° W 20:05:58 10° N
Cosmos 1328 Rocket 4.5 19:58:33 10° NNW 20:02:28 47° W 20:02:28 47° W
Meteor 1-25 Rocket 4.2 19:59:14 10° SSW 20:04:45 78° WSW 20:04:45 78° WSW
Cosmos 1339 Rocket 4.4 20:02:19 10° N 20:08:27 82° W 20:14:38 10° S
Lacrosse 4 Rocket 3.5 20:18:22 10° SW 20:21:48 27° W 20:21:48 27° W
BREEZE-M DEB (TANK) 4.5 20:25:16 10° NW 20:39:25 56° NNW 20:39:25 56° NNW
